Regional Weather Roundup
Issued by NWS

Home | Current Version | Previous Version | Graphics & Text | Print | Product List | Glossary On
Versions: 1 2 3 4 5 6 7 8 9 10 11 12 13 14 15 16 17 18 19 20 21 22 23 24 25 26 27 28 29 30 31 32 33 34 35 36 37 38 39 40 41 42 43 44 45 46 47 48 49 50
000
ASUS43 KFSD 191902
RWRSD

WEATHER ROUNDUP FOR SOUTH DAKOTA
NATIONAL WEATHER SERVICE SIOUX FALLS SD
200 PM CDT TUE SEP 19 2017

NOTE: "FAIR" INDICATES FEW OR NO CLOUDS BELOW 12,000 FEET WITH NO
SIGNIFICANT WEATHER AND/OR OBSTRUCTIONS TO VISIBILITY.


SDZ001>005-009-010-012>017-192000-
NORTHWEST AND NORTH CENTRAL SOUTH DAKOTA

CITY           SKY/WX    TMP DP  RH WIND       PRES   REMARKS
BUFFALO          N/A     61  49  64 NW18      29.49S
MOBRIDGE       CLOUDY    73  65  75 S14G24    29.45F
$$

SDZ012>016-024>037-041>051-057-063-072>074-192000-
SOUTHWEST AND SOUTH CENTRAL SOUTH DAKOTA

CITY           SKY/WX    TMP DP  RH WIND       PRES   REMARKS
RAPID CTY ARPT SUNNY     73  45  35 VRB5      29.52S
PIERRE         CLOUDY    78  64  61 SE20      29.44F
CUSTER         CLOUDY    66  38  35 W13G21    29.64F
ELLSWORTH AFB  PTSUNNY   71  44  37 N9        29.52S
PHILIP         CLOUDY    75  51  43 W6        29.48F
PINE RIDGE     CLOUDY    75  49  39 E3        29.54F
SPEARFISH      LGT RAIN  63  46  55 CALM      29.57R
WINNER         FAIR      78  67  68 S18G25    29.50F
$$

SDZ004>011-016>023-039-040-192000-
NORTHEAST SOUTH DAKOTA

CITY           SKY/WX    TMP DP  RH WIND       PRES   REMARKS
ABERDEEN       CLOUDY    75  65  70 SE18      29.52F
WATERTOWN      CLOUDY    71  66  84 SE20G37   29.60F
BROOKINGS      CLOUDY    71  66  84 SE25G33   29.64F
SISSETON         N/A     73  65  75 SE24G37   29.60F
$$

SDZ017-020-022-023-036>040-048>070-192000-
SOUTHEAST SOUTH DAKOTA

CITY           SKY/WX    TMP DP  RH WIND       PRES   REMARKS
SIOUX FALLS    PTSUNNY   78  69  73 SE17G26   29.64F
HURON          MOSUNNY   77  67  71 SE24G38   29.52F
CHAMBERLAIN    CLOUDY    81  70  69 SE22      29.50F
MITCHELL       CLOUDY    82  67  60 SE18G32   29.53F
YANKTON        CLOUDY    81  70  69 E21G28    29.58F
$$

ABBREVIATIONS USED IN REMARKS
   TC - TEMPERATURE IN CELSIUS
  WCI - WIND CHILL INDEX
   HX - HEAT INDEX
  VSB - VISIBILITY





USA.gov is the U.S. government's official web portal to all federal, state and local government web resources and services.